[[{"header":{"parameterUnit":"m.s-1","parameterCategory":1,"la1":30.2991,"la2":30.254,"lo1":-89.0895,"lo2":-89.0444,"dy":0.0017,"dx":0.0017,"nx":28,"ny":28,"refTime":"2024-06-03T21:00:00:Z","depth":0,"parameterNumber":2,"parameterNumberName":"U-component_of_WINDS"},"data":[0,0,0,0,0,0,0,0,0,0,0,0,0,0,0,0,0,0,0,0,0,0,0,0,0,0,0,0,0,0,0,0,0,0,0,0,0,0,0,0,0,0,0,0,0,0,0,0,0,0,0,0,0,0,0,0,0,0,-1.0002,-1.0003,0,-1.0026,-1.0026,-1.0026,-1.0021,-1.002,-1.002,-1.0019,-1.0044,-1.0045,-1.0046,0,0,0,0,0,0,0,0,0,0,0,0,0,-0.9956,-0.9957,-1.0002,-1.0003,-1.0003,-1.0025,-1.0026,-1.0026,-1.0021,-1.002,-1.002,-1.0019,-1.0044,-1.0045,-1.0046,0,0,0,0,0,0,0,0,0,0,0,0,0,-0.9977,-0.9957,-1.0002,-1.0003,-1.0003,-1.0025,-1.0026,-1.0026,-1.0021,-1.002,-1.0019,-1.0019,-1.0043,-1.0045,-1.0046,-1.007,0,0,-1.0051,-1.0052,0,0,0,0,0,0,0,0,-0.9976,-0.9979,-1.0003,-1.0003,-1.0003,-1.0019,-1.0018,-1.0041,-1.0021,-1.0014,-1.0019,-1.0018,-1.0036,-1.0039,-1.0044,-1.0071,-1.0072,-1.0051,-1.0052,-1.0053,-1.0054,0,0,0,0,0,0,0,-0.9975,-0.9978,-1.0012,-1.0003,-1.0003,-1.0003,-1.0005,-1.0023,-1.0029,-1.0015,-1.0014,-1.0017,-1.0036,-1.0043,-1.0045,-1.0072,-1.0051,-1.0053,-1.0054,-1.0054,-1.0121,-1.0122,0,0,0,0,0,0,-0.9972,-0.9977,-1.0011,-1.0012,-0.9988,-1.0004,-1.0007,-1.0015,-1.0029,-1.003,-1.0018,-1.0017,-1.004,-1.0043,-1.0046,-1.0075,-1.0053,-1.0055,-1.0056,-1.012,-1.0121,-1.0122,0,0,0,0,0,0,-0.9972,-0.9976,-1.001,-0.9994,-0.9999,-1.0006,-1.0015,-1.0016,-1.0022,-1.0031,-1.0032,-1.0023,-1.004,-1.0043,-1.0064,-1.0076,-1.0055,-1.0057,-1.0119,-1.0121,-1.0122,-1.0134,0,0,0,0,0,0,-0.997,-0.9975,-0.9984,-0.9995,-1.0,-1.0027,-1.0016,-1.0017,-1.0025,-1.0024,-1.0036,-1.0037,-1.004,-1.0062,-1.0066,-1.0078,-1.0058,-1.0118,-1.012,-1.0121,-1.0132,-1.0135,-1.0137,0,0,0,0,0,-0.9969,-0.9986,-0.9984,-0.9988,-1.001,-1.0028,-1.0031,-1.0033,-1.0026,-1.0035,-1.0041,-1.0037,-1.0074,-1.0064,-1.0068,-1.0081,-1.0118,-1.0119,-1.0121,-1.0131,-1.0134,-1.0137,0,0,0,0,0,0,-0.9976,-0.9987,-0.9985,-1.0007,-1.0016,-1.0027,-1.0038,-1.0036,-1.0048,-1.0047,-1.0049,-1.0052,-1.0074,-1.0079,-1.0068,-1.0105,-1.0095,-1.0098,-1.0101,-1.0104,-1.0107,-1.0105,-1.0059,0,0,0,0,0,-0.998,-0.9993,-1.0003,-1.0021,-1.0026,-1.0031,-1.0039,-1.004,-1.005,-1.0054,-1.0061,-1.0072,-1.0086,-1.0095,-1.0109,-1.0133,-1.0136,-1.0144,-1.0147,-1.0149,-1.0151,-1.0166,-1.017,-1.0128,-1.0128,-1.0128,0,0,-0.9989,-0.9997,-1.0005,-1.0023,-1.003,-1.0044,-1.0035,-1.005,-1.0061,-1.0057,-1.0077,-1.0083,-1.0095,-1.0118,-1.0128,-1.0123,-1.0164,-1.0151,-1.0153,-1.0154,-1.0168,-1.0172,-1.0176,-1.0129,-1.0129,-1.0129,0,0,-1.0013,-1.0019,-1.0036,-1.0044,-1.0055,-1.0059,-1.0063,-1.0074,-1.0078,-1.0098,-1.0096,-1.0109,-1.0133,-1.0142,-1.015,-1.0178,-1.0176,-1.0183,-1.0197,-1.0211,-1.0214,-1.0217,-1.0228,-1.0232,-1.0185,-1.0185,-1.0185,0,-1.0022,-1.0043,-1.0045,-1.006,-1.0069,-1.0066,-1.0083,-1.0091,-1.0106,-1.0113,-1.0107,-1.0138,-1.0145,-1.0171,-1.0178,-1.0184,-1.019,-1.0181,-1.0214,-1.0217,-1.0219,-1.023,-1.0234,-1.0186,-1.0186,-1.0186,-1.0186,0,-1.0055,-1.007,-1.0082,-1.0097,-1.0106,-1.0123,-1.0128,-1.0137,-1.0138,-1.0142,-1.0164,-1.0173,-1.0189,-1.0195,-1.0195,-1.0221,-1.0218,-1.0213,-1.0202,-1.0224,-1.0234,-1.0238,-1.0187,-1.0187,-1.0186,-1.0186,0,0,-1.0084,-1.01,-1.0105,-1.0112,-1.0125,-1.0137,-1.0154,-1.0169,-1.0178,-1.0189,-1.0204,-1.0225,-1.0221,-1.023,-1.0231,-1.0243,-1.0267,-1.0237,-1.0237,-1.0243,-1.0297,-1.0302,-1.0306,-1.0265,-1.0266,-1.0267,-1.0297,0,-1.0109,-1.0138,-1.0141,-1.0167,-1.0182,-1.0179,-1.0194,-1.0205,-1.021,-1.0223,-1.0229,-1.0244,-1.0237,-1.0242,-1.0254,-1.0261,-1.0278,-1.0259,-1.028,-1.0281,-1.0278,-1.0311,-1.0316,-1.0344,-1.0301,-1.0301,-1.0302,0,-1.0143,-1.0155,-1.0183,-1.0195,-1.0201,-1.0215,-1.023,-1.0242,-1.0254,-1.0257,-1.0268,-1.0268,-1.0286,-1.0275,-1.0301,-1.0288,-1.0297,-1.0302,-1.0303,-1.0306,-1.0293,-1.0316,-1.0353,-1.0357,-1.0308,-1.0307,-1.0307,0,-1.0162,-1.0186,-1.0206,-1.0212,-1.0227,-1.0236,-1.0243,-1.0254,-1.0264,-1.0277,-1.0283,-1.0299,-1.0307,-1.032,-1.0324,-1.0316,-1.0351,-1.034,-1.0355,-1.0355,-1.0363,-1.0362,-1.0402,-1.0367,-1.0367,-1.0367,-1.0367,0,-1.0191,-1.0209,-1.0215,-1.0228,-1.0248,-1.025,-1.027,-1.0277,-1.0287,-1.0301,-1.03,-1.0314,-1.0319,-1.0334,-1.0338,-1.036,-1.0363,-1.0367,-1.0368,-1.0367,-1.0367,-1.0374,-1.0372,-1.0368,-1.0368,-1.0368,-1.0367,0,-1.0217,-1.0221,-1.0243,-1.0255,-1.0259,-1.0273,-1.0284,-1.0297,-1.0302,-1.032,-1.0325,-1.0333,-1.035,-1.0356,-1.0377,-1.038,-1.0406,-1.0405,-1.0402,-1.0402,-1.0417,-1.0416,-1.0463,-1.047,-1.043,-1.043,-1.0431,0,-1.0235,-1.0248,-1.0262,-1.0271,-1.0278,-1.0293,-1.0303,-1.0307,-1.0317,-1.0333,-1.0344,-1.0361,-1.0375,-1.0403,-1.0412,-1.0428,-1.0428,-1.0444,-1.0431,-1.043,-1.043,-1.0429,-1.0431,-1.0446,-1.0447,-1.0447,-1.0447,0,-1.0267,-1.0269,-1.0283,-1.0298,-1.031,-1.0322,-1.0334,-1.0342,-1.0347,-1.0359,-1.0377,-1.0388,-1.041,-1.0427,-1.0445,-1.0452,-1.0451,-1.0451,-1.0456,-1.0456,-1.0454,-1.0456,-1.0409,-1.045,-1.045,-1.045,-1.045,-1.0449,-1.0291,-1.0303,-1.0315,-1.033,-1.034,-1.0351,-1.0364,-1.037,-1.0385,-1.0403,-1.0404,-1.0424,-1.0437,-1.046,-1.0468,-1.0484,-1.048,-1.0486,-1.0488,-1.049,-1.0492,-1.0451,-1.0487,-1.0487,-1.0487,-1.0487,-1.0487,0,-1.0324,-1.0332,-1.0346,-1.0362,-1.0375,-1.0372,-1.0386,-1.0397,-1.0414,-1.0426,-1.044,-1.0461,-1.0478,-1.0488,-1.0506,-1.0517,-1.0517,-1.0522,-1.0521,-1.0523,-1.0494,-1.0489,-1.0521,-1.0521,-1.0521,-1.0521,-1.0521,-1.0521,-1.0343,-1.0364,-1.0368,-1.0394,-1.0401,-1.042,-1.0428,-1.0439,-1.0448,-1.0472,-1.0486,-1.0492,-1.0504,-1.0523,-1.0539,-1.0542,-1.0549,-1.0554,-1.0556,-1.0529,-1.0525,-1.0522,-1.0517,-1.0555,-1.0555,-1.0584,-1.0584,-1.0585]},{"header":{"parameterUnit":"m.s-1","parameterCategory":1,"la1":30.2991,"la2":30.254,"lo1":-89.0895,"lo2":-89.0444,"dy":0.0017,"dx":0.0017,"nx":28,"ny":28,"refTime":"2024-06-03T21:00:00:Z","depth":0,"parameterNumber":3,"parameterNumberName":"V-component_of_WINDS"},"data":[0,0,0,0,0,0,0,0,0,0,0,0,0,0,0,0,0,0,0,0,0,0,0,0,0,0,0,0,0,0,0,0,0,0,0,0,0,0,0,0,0,0,0,0,0,0,0,0,0,0,0,0,0,0,0,0,0,0,5.8835,5.8835,0,5.8848,5.8848,5.8848,5.8754,5.8752,5.8749,5.8746,5.8758,5.8761,5.8764,0,0,0,0,0,0,0,0,0,0,0,0,0,5.8726,5.8728,5.8835,5.8835,5.8835,5.8848,5.8848,5.8848,5.8755,5.8751,5.8748,5.8745,5.8757,5.8761,5.8764,0,0,0,0,0,0,0,0,0,0,0,0,0,5.876,5.8729,5.8835,5.879,5.8786,5.8848,5.8848,5.8848,5.8755,5.8751,5.8747,5.8744,5.8756,5.876,5.8764,5.8869,0,0,5.8777,5.8779,0,0,0,0,0,0,0,0,5.8758,5.8764,5.8796,5.8793,5.8789,5.8795,5.8814,5.8855,5.8756,5.8767,5.8746,5.8742,5.8774,5.8776,5.8787,5.887,5.887,5.8777,5.878,5.8782,5.8783,0,0,0,0,0,0,0,5.8756,5.8763,5.884,5.8797,5.8793,5.8768,5.8769,5.8821,5.8792,5.8766,5.8759,5.8762,5.8771,5.8783,5.8787,5.887,5.8777,5.8781,5.8784,5.8785,5.9037,5.9041,0,0,0,0,0,0,5.876,5.8761,5.8839,5.884,5.8763,5.8774,5.8774,5.8797,5.8791,5.8787,5.8765,5.8757,5.8778,5.8782,5.8787,5.8907,5.8782,5.8786,5.8788,5.9032,5.9037,5.9042,0,0,0,0,0,0,5.8758,5.8767,5.8839,5.8799,5.8806,5.878,5.8807,5.88,5.8812,5.8791,5.8785,5.8784,5.8775,5.8781,5.8849,5.8906,5.8787,5.8791,5.9027,5.9034,5.904,5.915,0,0,0,0,0,0,5.8755,5.8767,5.8808,5.8801,5.8809,5.8902,5.881,5.8803,5.882,5.881,5.8807,5.8802,5.8773,5.8843,5.8853,5.891,5.8794,5.9022,5.903,5.9038,5.9141,5.9159,5.9174,0,0,0,0,0,5.8751,5.8838,5.881,5.882,5.8859,5.8905,5.891,5.8874,5.8825,5.8864,5.885,5.8803,5.8899,5.8851,5.8861,5.892,5.9018,5.9028,5.9037,5.9133,5.9155,5.9174,0,0,0,0,0,0,5.8853,5.8837,5.8805,5.8893,5.8901,5.889,5.8938,5.8899,5.8922,5.8911,5.8866,5.8866,5.8941,5.8937,5.8884,5.902,5.895,5.8962,5.9019,5.904,5.9057,5.9055,5.8798,0,0,0,0,0,5.8885,5.8926,5.8909,5.8988,5.8994,5.8966,5.8985,5.8956,5.8963,5.8966,5.8957,5.8965,5.8996,5.9018,5.9046,5.914,5.9137,5.9186,5.9203,5.9217,5.9227,5.9274,5.9295,5.9073,5.9073,5.9073,0,0,5.8953,5.8949,5.8977,5.9008,5.9011,5.9052,5.8969,5.9017,5.9046,5.8973,5.9036,5.903,5.9035,5.9116,5.9151,5.9116,5.9288,5.9229,5.924,5.9242,5.9286,5.9307,5.9325,5.9079,5.9078,5.9077,0,0,5.9097,5.9099,5.9164,5.9168,5.9174,5.9155,5.917,5.9164,5.9157,5.922,5.9165,5.92,5.9256,5.9261,5.9271,5.9416,5.9372,5.9427,5.9514,5.9561,5.9578,5.9593,5.9643,5.9661,5.9437,5.9438,5.9438,0,5.918,5.9241,5.9202,5.9252,5.9267,5.9202,5.9266,5.9273,5.9288,5.9298,5.9258,5.9326,5.9325,5.9405,5.9441,5.9452,5.9467,5.9426,5.9579,5.9594,5.9607,5.9654,5.9673,5.9444,5.9443,5.9443,5.9442,0,5.9341,5.9384,5.9435,5.9451,5.9471,5.9528,5.9497,5.9522,5.9492,5.9476,5.954,5.9537,5.9562,5.9579,5.9551,5.9655,5.9633,5.9587,5.9515,5.9636,5.9678,5.9696,5.9453,5.9451,5.9449,5.9448,0,0,5.9549,5.9542,5.9561,5.9566,5.9567,5.9599,5.9653,5.9678,5.9699,5.9711,5.9754,5.9803,5.9759,5.9771,5.9742,5.9784,5.9896,5.9732,5.9731,5.9761,6.0008,6.0041,6.0063,5.9867,5.9871,5.9873,6.0007,0,5.9688,5.9779,5.9745,5.9839,5.9876,5.9815,5.9861,5.9867,5.9854,5.9883,5.9868,5.9902,5.9844,5.985,5.9889,5.9874,5.9944,5.9864,5.9905,5.9907,5.9904,6.0086,6.0121,6.0248,6.0024,6.0027,6.0029,0,5.9862,5.988,5.9978,5.997,5.9985,6.0027,6.0046,6.0076,6.008,6.0067,6.008,6.0042,6.0092,6.0022,6.0091,6.0037,6.0052,6.0047,6.0051,6.0052,5.9974,6.009,6.0287,6.0306,6.0055,6.0053,6.0051,0,6.0001,6.0051,6.0114,6.0121,6.0115,6.0146,6.0144,6.0144,6.0161,6.0178,6.0187,6.021,6.0222,6.024,6.0209,6.0161,6.0281,6.0209,6.0271,6.0272,6.0297,6.0296,6.0498,6.0311,6.031,6.031,6.031,0,6.0158,6.022,6.0176,6.0216,6.0282,6.0242,6.0308,6.03,6.03,6.0336,6.0285,6.032,6.0277,6.0307,6.0283,6.0342,6.0348,6.0339,6.0331,6.0342,6.0343,6.035,6.0339,6.0315,6.0314,6.0313,6.0312,0,6.0325,6.0299,6.0364,6.0352,6.035,6.0399,6.0389,6.0424,6.0407,6.0452,6.0461,6.0434,6.0467,6.0438,6.0469,6.0453,6.0531,6.0512,6.053,6.0524,6.0586,6.058,6.0799,6.0824,6.0622,6.0624,6.0626,0,6.0426,6.0472,6.0464,6.0484,6.0486,6.0519,6.0536,6.0498,6.0516,6.0524,6.0558,6.0586,6.0606,6.0661,6.0644,6.0667,6.0647,6.0722,6.065,6.0659,6.0646,6.0643,6.0646,6.0736,6.0739,6.0741,6.0742,0,6.0608,6.0592,6.0618,6.0639,6.0659,6.0674,6.0684,6.0704,6.0664,6.0688,6.072,6.0736,6.0768,6.0796,6.0814,6.0811,6.077,6.0765,6.078,6.0791,6.0799,6.0793,6.0567,6.076,6.0758,6.0757,6.0756,6.0755,6.0743,6.078,6.078,6.0809,6.0813,6.0824,6.0855,6.0842,6.0869,6.0891,6.0867,6.0906,6.0907,6.0927,6.093,6.0959,6.0927,6.095,6.0955,6.0961,6.0969,6.0796,6.0962,6.0962,6.0961,6.0961,6.0961,0,6.092,6.0917,6.0945,6.096,6.0983,6.0943,6.0952,6.0973,6.1008,6.1013,6.1034,6.107,6.1097,6.1082,6.1105,6.1132,6.1113,6.1139,6.1135,6.1135,6.0997,6.0981,6.1153,6.1153,6.1153,6.1153,6.1153,6.1153,6.1015,6.1074,6.1058,6.1118,6.1114,6.1152,6.116,6.1169,6.1172,6.1215,6.1237,6.1227,6.1224,6.1246,6.1268,6.1263,6.1273,6.1305,6.1293,6.1164,6.1145,6.1127,6.1111,6.1308,6.1308,6.1428,6.1429,6.143]}]]